This demonstration page uses our WeatherBlox Daily Observations layout. Learn more.

Left ArrowRight Arrow

39.51506, -84.39828

Hourly Observations for July 8, 2021

Temp ( °F °C ) Dew Point ( °F °C ) Humidity (%) Winds ( mph kmh ) Pressure ( in mb ) Visibility ( mi km ) Precip ( " mm )
12:15 am 00:15 Clear 73 22.5 70 21.2 92 92 N N/A 29.92 1013 10 16 N/A
12:35 am 00:35 Clear 72 22.1 70 21.2 95 95 N N/A 29.92 1013 10 16 N/A
12:55 am 00:55 Clear 70 21 70 21 100 100 N N/A 29.91 1013 10 16 N/A
1:15 am 01:15 Partly Cloudy 70 21 70 21 100 100 N N/A 29.92 1013 10 16 N/A
1:35 am 01:35 Mostly Cloudy 72 22 N/A N/A SSE 5 7 29.91 1013 10 16 N/A
1:55 am 01:55 Clear 72 22 72 22 100 100 WSW 5 7 29.91 1013 10 16 N/A
2:15 am 02:15 Cloudy 73 22.6 71 21.6 94 94 SSW 5 7 29.90 1012 10 16 N/A
2:35 am 02:35 Partly Cloudy 72 22.2 71 21.5 96 96 S 6 9 29.90 1013 10 16 N/A
2:55 am 02:55 Clear 73 22.7 71 21.6 94 94 S 7 11 29.90 1012 10 16 N/A
3:15 am 03:15 Partly Cloudy 73 22.8 71 21.6 93 93 SSW 6 9 29.89 1012 10 16 N/A
3:35 am 03:35 Cloudy 73 23 71 21.8 93 93 SSW 7 11 29.89 1012 10 16 N/A
3:55 am 03:55 Cloudy 73 22.8 72 22.1 96 96 SW 5 7 29.89 1012 10 16 N/A
4:15 am 04:15 Cloudy 74 23.1 72 22.1 94 94 SSW 8 13 29.89 1012 10 16 N/A
4:35 am 04:35 Cloudy 74 23.3 72 22 92 92 SSW 7 11 29.88 1012 10 16 N/A
4:55 am 04:55 Cloudy 74 23.2 72 22.2 94 94 SSW 7 11 29.88 1012 10 16 N/A
5:15 am 05:15 Cloudy 74 23.2 72 22.1 94 94 SSW 8 13 29.88 1012 10 16 N/A
5:35 am 05:35 Cloudy 74 23.2 72 22.2 94 94 SSW 8 13 29.89 1012 10 16 N/A
5:55 am 05:55 Cloudy 74 23.1 72 22.1 94 94 SW 7 11 29.89 1012 10 16 N/A
6:15 am 06:15 Cloudy 73 23 72 22.2 95 95 SW 6 9 29.89 1012 10 16 N/A
6:35 am 06:35 Cloudy 73 22.9 72 22.2 96 96 SW 7 11 29.89 1012 10 16 N/A
6:55 am 06:55 Cloudy 73 22.9 72 22.2 96 96 SSW 9 15 29.90 1012 10 16 N/A
7:15 am 07:15 Cloudy 73 22.9 72 22.2 96 96 SW 9 15 29.90 1012 10 16 N/A
7:35 am 07:35 Cloudy 74 23.1 72 22.3 95 95 SW 7 11 29.90 1012 10 16 N/A
7:55 am 07:55 Cloudy 73 23 72 22.3 96 96 SW 9 15 29.90 1012 10 16 N/A
8:15 am 08:15 Cloudy 74 23.1 72 22.3 95 95 SW 8 13 29.91 1013 10 16 N/A
8:35 am 08:35 Cloudy 74 23.2 72 22.3 95 95 SSW 8 13 29.91 1013 7 11 N/A
8:55 am 08:55 Cloudy 74 23.2 72 22.3 95 95 SW 9 15 29.92 1013 10 16 N/A
9:15 am 09:15 Cloudy 74 23.3 73 22.5 95 95 SSW 8 13 29.91 1013 10 16 N/A
9:35 am 09:35 Cloudy 74 23.6 73 22.6 94 94 SSW 8 13 29.92 1013 10 16 N/A
9:55 am 09:55 Cloudy 74 23.6 73 22.6 94 94 SSW 7 11 29.92 1013 10 16 N/A
10:15 am 10:15 Cloudy 75 23.7 73 22.6 94 94 SSW 8 13 29.92 1013 10 16 N/A
10:35 am 10:35 Cloudy 75 23.8 73 22.8 94 94 SSW 7 11 29.92 1013 10 16 N/A
10:55 am 10:55 Cloudy 75 24.1 73 22.8 92 92 S 8 13 29.91 1013 10 16 N/A
11:15 am 11:15 Cloudy 76 24.3 73 22.8 91 91 SSW 8 13 29.90 1013 10 16 N/A
11:35 am 11:35 Cloudy 76 24.6 73 22.9 90 90 S 8 13 29.90 1013 10 16 N/A
11:55 am 11:55 Cloudy with Nearby Thunderstorms 78 25.3 73 22.9 87 87 S 9 15 29.90 1013 10 16 N/A
12:15 pm 12:15 Cloudy 78 25.8 74 23.1 85 85 SSW 8 13 29.89 1012 10 16 N/A
12:35 pm 12:35 Cloudy 80 26.5 74 23.2 82 82 SW 9 15 29.89 1012 10 16 N/A
12:55 pm 12:55 Mostly Cloudy 81 27.1 74 23.1 79 79 SSW 10 17 29.88 1012 10 16 N/A
1:15 pm 13:15 Partly Cloudy 80 26.4 74 23.1 82 82 SW 13 20 29.89 1012 10 16 N/A
1:35 pm 13:35 Partly Cloudy 80 26.6 74 23.1 81 81 SSW 9 15 29.88 1012 10 16 N/A
1:55 pm 13:55 Sunny 80 26.9 74 23.1 80 80 SW 10 17 29.89 1012 10 16 N/A
2:15 pm 14:15 Sunny 80 26.9 74 23.1 80 80 SW 13 20 29.89 1012 10 16 N/A
2:35 pm 14:35 Sunny with Nearby Thunderstorms 80 26.7 74 23.1 81 81 W 10 17 29.89 1012 10 16 N/A
2:55 pm 14:55 Mostly Cloudy 78 25.6 73 23 86 86 W 13 20 29.90 1013 10 16 N/A
3:15 pm 15:15 Cloudy 71 21.4 68 19.8 91 91 SSW 3 6 29.89 1012 10 16 0.08 2.03
3:35 pm 15:35 Sunny 73 22.9 70 21.1 90 90 SSW 8 13 29.89 1012 10 16 0.09 2.29
3:55 pm 15:55 Partly Cloudy 75 24.1 72 22.1 89 89 SW 7 11 29.89 1012 10 16 0.09 2.29
4:15 pm 16:15 Partly Cloudy 78 25.3 70 21.2 78 78 SW 9 15 29.88 1012 10 16 N/A
4:35 pm 16:35 Sunny 79 26 72 22.1 79 79 SW 7 11 29.86 1011 10 16 N/A
4:55 pm 16:55 Sunny 80 26.4 72 22.1 77 77 WSW 9 15 29.86 1011 10 16 N/A
5:15 pm 17:15 Sunny 80 26.9 73 22.6 77 77 WSW 7 11 29.85 1011 10 16 N/A
5:35 pm 17:35 Sunny 81 27.2 73 23 78 78 WSW 8 13 29.84 1010 10 16 N/A
5:55 pm 17:55 Sunny 82 27.7 74 23.5 78 78 SW 10 17 29.86 1011 10 16 N/A
6:15 pm 18:15 Mostly Cloudy 81 27.2 74 23.2 79 79 WSW 10 17 29.86 1011 10 16 N/A
6:35 pm 18:35 Sunny 81 27 74 23.5 81 81 WSW 8 13 29.84 1010 10 16 N/A
6:55 pm 18:55 Sunny 80 26.7 74 23.5 83 83 WSW 6 9 29.84 1010 10 16 N/A
7:15 pm 19:15 Sunny 80 26.8 75 23.8 84 84 WSW 8 13 29.85 1011 10 16 N/A
7:35 pm 19:35 Partly Cloudy 80 26.7 74 23.6 83 83 WSW 8 13 29.85 1011 7 11 N/A
7:55 pm 19:55 Partly Cloudy 80 26.7 74 23.6 83 83 WSW 6 9 29.85 1011 10 16 N/A
8:15 pm 20:15 Sunny 79 26.3 74 23.6 85 85 WSW 7 11 29.85 1011 10 16 N/A
8:35 pm 20:35 Sunny 79 26 75 23.7 87 87 SW 6 9 29.84 1011 10 16 N/A
8:55 pm 20:55 Sunny 78 25.4 74 23.3 88 88 WSW 7 11 29.85 1011 10 16 N/A
9:15 pm 21:15 Partly Cloudy 77 24.8 74 23.4 92 92 WSW 7 11 29.86 1011 10 16 N/A
9:35 pm 21:35 Clear 76 24.2 74 23.3 95 95 WSW 6 9 29.88 1012 10 16 N/A
9:55 pm 21:55 Clear 75 23.7 74 23.2 97 97 W 5 7 29.88 1012 10 16 N/A
10:15 pm 22:15 Clear 74 23.4 74 23.1 98 98 WSW 3 6 29.89 1012 10 16 N/A
10:35 pm 22:35 Partly Cloudy 73 23 73 23 100 100 WSW 5 7 29.90 1012 10 16 N/A
10:55 pm 22:55 Partly Cloudy 73 23 N/A N/A WSW 7 11 29.90 1012 10 16 N/A
11:15 pm 23:15 Mostly Cloudy 74 23.2 74 23.2 100 100 WSW 7 11 29.90 1012 10 16 N/A
11:35 pm 23:35 Cloudy 74 23.4 74 23.1 98 98 W 8 13 29.90 1012 10 16 N/A
11:55 pm 23:55 Cloudy 74 23.3 73 22.6 96 96 WSW 6 9 29.90 1012 10 16 N/A

Powered by AerisWeather